Location: PSU-Greenbush Astrophysical Observatory
(37.5140°N, 94.9880°W)
Time: 14:02:40
(UTC-06:00)

A-11 Canister half - All Passes

Search period start: 25 January 2020 00:00
Search period end: 04 February 2020 00:00
Orbit: 1525 x 1684 km, 47.3° (Epoch: 25 January)

Date Brightness Start Highest point End Pass type
(mag) Time Alt. Az. Time Alt. Az. Time Alt. Az.
25 Jan - 00:50:00 10° WNW 00:59:30 58° SW 01:09:15 10° SSE night (unlit)
25 Jan - 02:58:28 10° W 03:03:09 14° WSW 03:07:53 10° SSW night (unlit)
25 Jan - 16:06:46 10° SSW 16:15:15 42° SE 16:23:53 10° ENE daylight
25 Jan - 18:10:32 10° WSW 18:19:51 74° NNW 18:29:27 10° ENE visible
25 Jan - 20:17:02 10° WNW 20:26:05 47° N 20:35:24 10° ENE visible
25 Jan - 22:23:06 10° WNW 22:32:37 61° NNE 22:42:27 10° ESE visible
26 Jan - 00:28:20 10° WNW 00:37:52 61° SW 00:47:41 10° SE night (unlit)
26 Jan - 02:36:22 10° W 02:41:34 16° WSW 02:46:52 10° SSW night (unlit)
26 Jan - 15:45:18 10° SSW 15:53:41 40° SE 16:02:10 10° ENE daylight
26 Jan - 17:48:52 10° WSW 17:58:12 76° NNW 18:07:47 10° ENE visible
26 Jan - 19:55:20 10° WNW 20:04:21 47° N 20:13:39 10° ENE visible
26 Jan - 22:01:27 10° WNW 22:10:55 60° NNE 22:20:41 10° E visible
27 Jan - 00:06:40 10° WNW 00:16:14 64° SW 00:26:05 10° SE visible
27 Jan - 02:14:20 10° W 02:20:00 17° WSW 02:25:45 10° SSW night (unlit)
27 Jan - 15:23:51 10° SSW 15:32:06 37° SE 15:40:26 10° ENE daylight
27 Jan - 17:27:13 10° WSW 17:36:32 79° NNW 17:46:07 10° ENE daylight
27 Jan - 19:33:38 10° WNW 19:42:39 48° N 19:51:56 10° ENE visible
27 Jan - 21:39:48 10° WNW 21:49:13 58° NNE 21:58:56 10° E visible
27 Jan - 23:45:01 10° WNW 23:54:35 66° SW 00:04:28 10° SE visible
28 Jan - 01:52:22 10° W 01:58:26 18° SW 02:04:35 10° SSW night (unlit)
28 Jan - 15:02:26 10° SSW 15:10:32 35° SE 15:18:42 10° ENE daylight
28 Jan - 17:05:35 10° WSW 17:14:54 81° NNW 17:24:26 10° ENE daylight
28 Jan - 19:11:55 10° W 19:20:56 48° N 19:30:12 10° ENE visible
28 Jan - 21:18:09 10° WNW 21:27:31 57° NNE 21:37:11 10° E visible
28 Jan - 23:23:23 10° WNW 23:32:57 69° SW 23:42:51 10° SE visible
29 Jan - 01:30:27 10° W 01:36:50 20° SW 01:43:22 10° SSW night (unlit)
29 Jan - 14:41:01 10° S 14:48:58 33° SE 14:56:58 10° ENE daylight
29 Jan - 16:43:56 10° WSW 16:53:15 84° NNW 17:02:47 10° ENE daylight
29 Jan - 18:50:13 10° W 18:59:13 48° N 19:08:28 10° ENE visible
29 Jan - 20:56:30 10° WNW 21:05:49 56° NNE 21:15:25 10° E visible
29 Jan - 23:01:43 10° WNW 23:11:19 72° SW 23:21:13 10° SE visible
30 Jan - 01:08:33 10° W 01:15:16 21° SW 01:22:07 10° S night (unlit)
30 Jan - 14:19:37 10° S 14:27:24 31° SE 14:35:13 10° ENE daylight
30 Jan - 16:22:18 10° WSW 16:31:37 87° NNW 16:41:06 10° ENE daylight
30 Jan - 18:28:31 10° W 18:37:31 49° N 18:46:45 10° ENE visible
30 Jan - 20:34:51 10° WNW 20:44:07 54° NNE 20:53:39 10° E visible
30 Jan - 22:40:05 10° WNW 22:49:41 75° SW 22:59:35 10° SE visible
31 Jan - 00:46:42 10° W 00:53:41 23° SW 01:00:49 10° S night (unlit)
31 Jan - 13:58:13 10° S 14:05:51 29° SE 14:13:28 10° ENE daylight
31 Jan - 16:00:40 10° SW 16:09:59 90° NW 16:19:27 10° ENE daylight
31 Jan - 18:06:48 10° W 18:15:48 50° N 18:25:02 10° ENE visible
31 Jan - 20:13:12 10° WNW 20:22:25 53° NNE 20:31:54 10° E visible
31 Jan - 22:18:27 10° WNW 22:28:02 78° SW 22:37:56 10° SE visible
01 Feb - 00:24:52 10° WNW 00:32:06 24° SW 00:39:30 10° S night (unlit)
01 Feb - 13:36:52 10° S 13:44:17 28° SE 13:51:41 10° ENE daylight
01 Feb - 15:39:02 10° SW 15:48:21 87° SE 15:57:48 10° ENE daylight
01 Feb - 17:45:06 10° W 17:54:06 50° NNW 18:03:19 10° ENE daylight
01 Feb - 19:51:31 10° WNW 20:00:42 52° NNE 20:10:08 10° E visible
01 Feb - 21:56:48 10° WNW 22:06:23 81° SW 22:16:17 10° SE visible
02 Feb - 00:03:04 10° WNW 00:10:31 26° SW 00:18:09 10° S visible
02 Feb - 13:15:31 10° S 13:22:43 26° SE 13:29:55 10° ENE daylight
02 Feb - 15:17:25 10° SW 15:26:43 84° SE 15:36:08 10° ENE daylight
02 Feb - 17:23:24 10° W 17:32:24 51° NNW 17:41:37 10° ENE daylight
02 Feb - 19:29:52 10° WNW 19:39:00 51° NNE 19:48:22 10° E visible
02 Feb - 21:35:10 10° WNW 21:44:44 84° SW 21:54:37 10° SE visible
02 Feb - 23:41:17 10° WNW 23:48:55 27° SW 23:56:47 10° S visible
03 Feb - 12:54:11 10° S 13:01:09 24° SE 13:08:06 10° ENE daylight
03 Feb - 14:55:49 10° SW 15:05:06 81° SE 15:14:29 10° ENE daylight
03 Feb - 17:01:40 10° W 17:10:42 52° NNW 17:19:54 10° ENE daylight
03 Feb - 19:08:12 10° WNW 19:17:17 50° NNE 19:26:37 10° E visible
03 Feb - 21:13:32 10° WNW 21:23:05 87° SW 21:32:58 10° SE visible
03 Feb - 23:19:30 10° WNW 23:27:20 29° SW 23:35:22 10° S visible
